[[{"header":{"parameterUnit":"m.s-1","parameterCategory":1,"la1":30.2991,"la2":30.254,"lo1":-89.0895,"lo2":-89.0444,"dy":0.0017,"dx":0.0017,"nx":28,"ny":28,"refTime":"2024-09-24T21:00:00:Z","depth":0,"parameterNumber":2,"parameterNumberName":"U-component_of_WINDS"},"data":[0,0,0,0,0,0,0,0,0,0,0,0,0,0,0,0,0,0,0,0,0,0,0,0,0,0,0,0,0,0,0,0,0,0,0,0,0,0,0,0,0,0,0,0,0,0,0,0,0,0,0,0,0,0,0,0,0,0,-1.5374,-1.5374,0,-1.543,-1.5431,-1.5432,-1.5409,-1.5408,-1.5407,-1.5405,-1.5462,-1.5464,-1.5467,0,0,0,0,0,0,0,0,0,0,0,0,0,-1.5246,-1.5248,-1.5374,-1.5375,-1.5375,-1.543,-1.5431,-1.5432,-1.541,-1.5408,-1.5406,-1.5405,-1.5461,-1.5464,-1.5467,0,0,0,0,0,0,0,0,0,0,0,0,0,-1.5302,-1.5249,-1.5374,-1.5371,-1.5371,-1.543,-1.5431,-1.5432,-1.541,-1.5408,-1.5406,-1.5404,-1.546,-1.5464,-1.5468,-1.5532,0,0,-1.548,-1.5482,0,0,0,0,0,0,0,0,-1.5298,-1.5306,-1.5371,-1.5371,-1.5372,-1.5411,-1.5406,-1.5465,-1.541,-1.5395,-1.5405,-1.5403,-1.5446,-1.5451,-1.5466,-1.5535,-1.5537,-1.548,-1.5483,-1.5485,-1.5486,0,0,0,0,0,0,0,-1.5295,-1.5304,-1.5396,-1.5372,-1.5372,-1.5366,-1.5372,-1.5417,-1.5431,-1.5396,-1.5395,-1.5402,-1.5446,-1.5462,-1.5467,-1.5538,-1.548,-1.5484,-1.5487,-1.5488,-1.5663,-1.5665,0,0,0,0,0,0,-1.5291,-1.5301,-1.5394,-1.5398,-1.533,-1.537,-1.5377,-1.54,-1.543,-1.5433,-1.5404,-1.5401,-1.5456,-1.5463,-1.5469,-1.5547,-1.5485,-1.5489,-1.5491,-1.5661,-1.5663,-1.5666,0,0,0,0,0,0,-1.5288,-1.5299,-1.5392,-1.5349,-1.536,-1.5375,-1.5401,-1.5402,-1.5418,-1.5436,-1.5438,-1.5418,-1.5455,-1.5463,-1.5517,-1.5549,-1.549,-1.5494,-1.5658,-1.5662,-1.5665,-1.5703,0,0,0,0,0,0,-1.5285,-1.5299,-1.5323,-1.535,-1.5363,-1.5439,-1.5403,-1.5405,-1.5426,-1.5423,-1.545,-1.5452,-1.5454,-1.5511,-1.5521,-1.5553,-1.5497,-1.5655,-1.566,-1.5664,-1.5699,-1.5707,-1.5714,0,0,0,0,0,-1.528,-1.5332,-1.5325,-1.5336,-1.5394,-1.5441,-1.5449,-1.545,-1.5428,-1.5453,-1.5465,-1.5451,-1.5544,-1.5517,-1.5528,-1.5562,-1.5653,-1.5658,-1.5663,-1.5696,-1.5706,-1.5714,0,0,0,0,0,0,-1.5308,-1.5335,-1.5328,-1.5389,-1.5413,-1.5437,-1.5469,-1.5461,-1.5491,-1.5486,-1.5486,-1.5493,-1.5548,-1.556,-1.5529,-1.5626,-1.5595,-1.5603,-1.5616,-1.5626,-1.5633,-1.5629,-1.5501,0,0,0,0,0,-1.5321,-1.5358,-1.5379,-1.5431,-1.5444,-1.5455,-1.5475,-1.5474,-1.5499,-1.5508,-1.5524,-1.5547,-1.5582,-1.5604,-1.5637,-1.5701,-1.5706,-1.573,-1.5737,-1.5743,-1.575,-1.5785,-1.5796,-1.5682,-1.5682,-1.5682,0,0,-1.5349,-1.5368,-1.5391,-1.5438,-1.5456,-1.5493,-1.5463,-1.5504,-1.5531,-1.5514,-1.5566,-1.5578,-1.5605,-1.5664,-1.5691,-1.5676,-1.5783,-1.575,-1.5755,-1.5758,-1.5791,-1.5802,-1.5811,-1.5685,-1.5685,-1.5684,0,0,-1.5419,-1.5437,-1.5483,-1.5503,-1.5531,-1.5538,-1.5549,-1.5575,-1.5582,-1.5635,-1.5623,-1.5655,-1.5714,-1.5734,-1.5752,-1.583,-1.5819,-1.5841,-1.5881,-1.5915,-1.5924,-1.5932,-1.596,-1.597,-1.5847,-1.5847,-1.5847,0,-1.545,-1.5507,-1.5508,-1.555,-1.5571,-1.5558,-1.5604,-1.5623,-1.566,-1.5675,-1.5657,-1.5732,-1.5749,-1.5813,-1.5832,-1.5846,-1.5859,-1.5838,-1.5923,-1.5931,-1.5938,-1.5965,-1.5975,-1.585,-1.5849,-1.5849,-1.5849,0,-1.5543,-1.5583,-1.5616,-1.5654,-1.5678,-1.5722,-1.573,-1.5754,-1.5752,-1.576,-1.5814,-1.5834,-1.587,-1.5885,-1.5882,-1.5949,-1.5939,-1.5922,-1.5891,-1.5951,-1.5976,-1.5987,-1.5853,-1.5852,-1.5851,-1.5851,0,0,-1.5632,-1.567,-1.5683,-1.57,-1.5731,-1.5761,-1.5804,-1.5841,-1.5862,-1.5889,-1.5925,-1.5976,-1.5961,-1.5981,-1.598,-1.601,-1.6072,-1.599,-1.5991,-1.6005,-1.6146,-1.6159,-1.6171,-1.6065,-1.6066,-1.6068,-1.6144,0,-1.5705,-1.5782,-1.5784,-1.5855,-1.5891,-1.588,-1.5917,-1.594,-1.595,-1.5982,-1.5991,-1.6028,-1.6005,-1.6017,-1.6047,-1.6058,-1.61,-1.6053,-1.6098,-1.61,-1.6092,-1.6184,-1.6197,-1.6268,-1.6154,-1.6156,-1.6157,0,-1.58,-1.583,-1.5904,-1.5931,-1.5946,-1.598,-1.6014,-1.6045,-1.6071,-1.6075,-1.6098,-1.6094,-1.6138,-1.6105,-1.6166,-1.6134,-1.6153,-1.6161,-1.6164,-1.6168,-1.6132,-1.6191,-1.629,-1.6301,-1.6172,-1.6171,-1.617,0,-1.5857,-1.5917,-1.5969,-1.5984,-1.6016,-1.604,-1.6055,-1.6079,-1.6101,-1.613,-1.6144,-1.6178,-1.6197,-1.6223,-1.6228,-1.6204,-1.6289,-1.6257,-1.6294,-1.6294,-1.6312,-1.6311,-1.6416,-1.6324,-1.6324,-1.6324,-1.6324,0,-1.5938,-1.5984,-1.5995,-1.6028,-1.6079,-1.6081,-1.6131,-1.6144,-1.6165,-1.62,-1.6191,-1.6223,-1.6227,-1.626,-1.6264,-1.6314,-1.6322,-1.6327,-1.6327,-1.6328,-1.6327,-1.634,-1.6335,-1.6327,-1.6326,-1.6325,-1.6325,0,-1.6011,-1.6021,-1.6077,-1.6103,-1.6111,-1.6147,-1.6169,-1.62,-1.6209,-1.6252,-1.6262,-1.6276,-1.6314,-1.6321,-1.6366,-1.6369,-1.6428,-1.6424,-1.642,-1.642,-1.6456,-1.6453,-1.6574,-1.659,-1.6487,-1.6488,-1.6489,0,-1.6062,-1.6097,-1.6128,-1.615,-1.6166,-1.6203,-1.6225,-1.6229,-1.6253,-1.6286,-1.6313,-1.635,-1.6381,-1.6443,-1.6456,-1.6491,-1.6487,-1.6527,-1.6492,-1.6492,-1.6488,-1.6486,-1.6489,-1.6534,-1.6535,-1.6536,-1.6536,0,-1.6152,-1.6155,-1.6188,-1.6224,-1.6252,-1.628,-1.6306,-1.6325,-1.6332,-1.636,-1.6399,-1.6423,-1.647,-1.6508,-1.6542,-1.6556,-1.6548,-1.6547,-1.6558,-1.6559,-1.6555,-1.6558,-1.6438,-1.6545,-1.6544,-1.6543,-1.6543,-1.6542,-1.6215,-1.6246,-1.6273,-1.6311,-1.6331,-1.6356,-1.6387,-1.64,-1.6433,-1.6472,-1.6472,-1.6516,-1.6541,-1.6587,-1.6603,-1.6637,-1.6624,-1.6639,-1.6643,-1.6647,-1.665,-1.655,-1.6643,-1.6643,-1.6643,-1.6643,-1.6643,0,-1.6305,-1.6321,-1.6356,-1.6394,-1.6424,-1.6414,-1.6443,-1.6468,-1.6507,-1.6532,-1.6562,-1.6608,-1.6645,-1.6662,-1.6698,-1.6722,-1.6719,-1.6731,-1.6729,-1.6733,-1.666,-1.6647,-1.6733,-1.6733,-1.6733,-1.6733,-1.6733,-1.6733,-1.6355,-1.6407,-1.6413,-1.6476,-1.6492,-1.6535,-1.6553,-1.6576,-1.6596,-1.6648,-1.6678,-1.6689,-1.6711,-1.6748,-1.6782,-1.6786,-1.6799,-1.6813,-1.6816,-1.6747,-1.6738,-1.6729,-1.6717,-1.6816,-1.6816,-1.6886,-1.6886,-1.6887]},{"header":{"parameterUnit":"m.s-1","parameterCategory":1,"la1":30.2991,"la2":30.254,"lo1":-89.0895,"lo2":-89.0444,"dy":0.0017,"dx":0.0017,"nx":28,"ny":28,"refTime":"2024-09-24T21:00:00:Z","depth":0,"parameterNumber":3,"parameterNumberName":"V-component_of_WINDS"},"data":[0,0,0,0,0,0,0,0,0,0,0,0,0,0,0,0,0,0,0,0,0,0,0,0,0,0,0,0,0,0,0,0,0,0,0,0,0,0,0,0,0,0,0,0,0,0,0,0,0,0,0,0,0,0,0,0,0,0,-8.2182,-8.2183,0,-8.224,-8.224,-8.2241,-8.2132,-8.2129,-8.2125,-8.2122,-8.2175,-8.2179,-8.2184,0,0,0,0,0,0,0,0,0,0,0,0,0,-8.1973,-8.1977,-8.2182,-8.2183,-8.2184,-8.224,-8.2241,-8.2241,-8.2133,-8.2128,-8.2124,-8.212,-8.2173,-8.2179,-8.2185,0,0,0,0,0,0,0,0,0,0,0,0,0,-8.205,-8.1979,-8.2182,-8.2136,-8.2133,-8.224,-8.2241,-8.2241,-8.2134,-8.2128,-8.2123,-8.2118,-8.2171,-8.2178,-8.2185,-8.2337,0,0,-8.2207,-8.221,0,0,0,0,0,0,0,0,-8.2046,-8.2058,-8.2142,-8.214,-8.2136,-8.2173,-8.2186,-8.2273,-8.2135,-8.2133,-8.2122,-8.2115,-8.2178,-8.2184,-8.2207,-8.234,-8.2342,-8.2208,-8.2212,-8.2215,-8.2217,0,0,0,0,0,0,0,-8.2041,-8.2055,-8.2205,-8.2144,-8.214,-8.2111,-8.2116,-8.2202,-8.2185,-8.2133,-8.2125,-8.2134,-8.2175,-8.22,-8.2207,-8.2343,-8.2208,-8.2214,-8.2218,-8.2221,-8.2604,-8.261,0,0,0,0,0,0,-8.2042,-8.2051,-8.2203,-8.2206,-8.2077,-8.212,-8.2125,-8.2167,-8.2184,-8.2181,-8.2138,-8.2129,-8.2191,-8.2199,-8.2209,-8.2389,-8.2215,-8.2222,-8.2226,-8.2599,-8.2606,-8.2612,0,0,0,0,0,0,-8.2038,-8.2057,-8.22,-8.2127,-8.2143,-8.2129,-8.2176,-8.2171,-8.2195,-8.2188,-8.2184,-8.2167,-8.2187,-8.2199,-8.2307,-8.2389,-8.2225,-8.2232,-8.2592,-8.2601,-8.2609,-8.2749,0,0,0,0,0,0,-8.2032,-8.2056,-8.2114,-8.2129,-8.2148,-8.2299,-8.2181,-8.2176,-8.2209,-8.2197,-8.2214,-8.2212,-8.2184,-8.2297,-8.2314,-8.2396,-8.2237,-8.2584,-8.2596,-8.2606,-8.2737,-8.2762,-8.2783,0,0,0,0,0,-8.2025,-8.215,-8.2118,-8.2137,-8.2221,-8.2304,-8.2314,-8.2281,-8.2216,-8.2274,-8.227,-8.2211,-8.2378,-8.2309,-8.2327,-8.2412,-8.2579,-8.2592,-8.2605,-8.2727,-8.2757,-8.2783,0,0,0,0,0,0,-8.2142,-8.2151,-8.2115,-8.2249,-8.2277,-8.2286,-8.2358,-8.2314,-8.2359,-8.2346,-8.2301,-8.2305,-8.2423,-8.2428,-8.2351,-8.2561,-8.2467,-8.2485,-8.2553,-8.2582,-8.2604,-8.26,-8.2243,0,0,0,0,0,-8.2184,-8.2253,-8.2256,-8.2373,-8.239,-8.2372,-8.2407,-8.2379,-8.2406,-8.2416,-8.2419,-8.2446,-8.2504,-8.2543,-8.2596,-8.2738,-8.274,-8.2806,-8.2829,-8.2847,-8.2863,-8.2939,-8.2969,-8.2656,-8.2656,-8.2655,0,0,-8.2269,-8.2283,-8.2329,-8.2397,-8.2416,-8.2487,-8.2382,-8.2461,-8.2514,-8.2427,-8.2531,-8.2535,-8.2561,-8.2687,-8.2743,-8.2695,-8.295,-8.2864,-8.288,-8.2885,-8.2956,-8.2986,-8.3012,-8.2665,-8.2663,-8.2662,0,0,-8.2463,-8.248,-8.258,-8.2602,-8.2633,-8.2621,-8.2645,-8.2662,-8.2662,-8.2765,-8.2703,-8.2763,-8.2864,-8.2886,-8.291,-8.3115,-8.3063,-8.3134,-8.3253,-8.3328,-8.3352,-8.3374,-8.3447,-8.3474,-8.3149,-8.315,-8.315,0,-8.2565,-8.2672,-8.2637,-8.2722,-8.2754,-8.2683,-8.2783,-8.2805,-8.2851,-8.2874,-8.2821,-8.2948,-8.296,-8.3091,-8.3142,-8.3164,-8.319,-8.3131,-8.3352,-8.3373,-8.3393,-8.3462,-8.349,-8.3158,-8.3157,-8.3156,-8.3155,0,-8.2796,-8.2871,-8.2948,-8.2998,-8.3038,-8.3131,-8.3109,-8.3154,-8.3124,-8.3117,-8.3224,-8.3237,-8.3292,-8.3321,-8.3291,-8.3449,-8.3418,-8.336,-8.3264,-8.3432,-8.3496,-8.3523,-8.317,-8.3167,-8.3165,-8.3162,0,0,-8.3061,-8.3094,-8.3122,-8.3145,-8.3175,-8.3231,-8.3321,-8.3377,-8.3417,-8.3451,-8.3525,-8.3614,-8.356,-8.3588,-8.356,-8.3626,-8.3789,-8.3559,-8.3559,-8.3601,-8.3964,-8.4008,-8.4039,-8.3755,-8.376,-8.3764,-8.3961,0,-8.3254,-8.341,-8.3383,-8.3534,-8.3603,-8.3538,-8.3616,-8.3642,-8.3639,-8.3696,-8.3691,-8.3755,-8.368,-8.3696,-8.3759,-8.3756,-8.3861,-8.3741,-8.3822,-8.3825,-8.3817,-8.4073,-8.4119,-8.4305,-8.3986,-8.3991,-8.3994,0,-8.3498,-8.3545,-8.3705,-8.3726,-8.3754,-8.3825,-8.3876,-8.3931,-8.396,-8.3953,-8.3986,-8.3946,-8.4034,-8.3939,-8.4059,-8.3979,-8.401,-8.4014,-8.402,-8.4026,-8.3919,-8.4085,-8.4363,-8.4392,-8.4033,-8.403,-8.4027,0,-8.3677,-8.378,-8.3889,-8.391,-8.3937,-8.3989,-8.4002,-8.4026,-8.4063,-8.4106,-8.413,-8.4182,-8.4211,-8.4252,-8.4228,-8.416,-8.4353,-8.4255,-8.4349,-8.435,-8.4391,-8.4389,-8.4678,-8.4413,-8.4412,-8.4412,-8.4411,0,-8.3894,-8.3994,-8.397,-8.4037,-8.4148,-8.4115,-8.4224,-8.423,-8.4252,-8.4318,-8.4264,-8.4326,-8.429,-8.435,-8.4331,-8.4434,-8.4447,-8.4443,-8.4437,-8.4448,-8.4449,-8.4468,-8.4454,-8.4419,-8.4417,-8.4416,-8.4415,0,-8.4111,-8.41,-8.4214,-8.4233,-8.4239,-8.432,-8.4334,-8.4397,-8.439,-8.4475,-8.4493,-8.4482,-8.455,-8.453,-8.4602,-8.459,-8.4721,-8.4698,-8.4712,-8.4706,-8.4802,-8.4793,-8.5113,-8.5154,-8.4862,-8.4864,-8.4867,0,-8.4251,-8.4327,-8.4354,-8.4396,-8.4415,-8.4482,-8.4521,-8.4492,-8.4533,-8.4573,-8.4631,-8.4694,-8.4744,-8.4855,-8.4853,-8.4908,-8.4886,-8.4995,-8.4894,-8.4904,-8.4888,-8.4884,-8.4892,-8.5014,-8.5018,-8.502,-8.5023,0,-8.4499,-8.4491,-8.4549,-8.4607,-8.4655,-8.4697,-8.4735,-8.4772,-8.4746,-8.4795,-8.4866,-8.4904,-8.498,-8.5044,-8.5095,-8.5106,-8.5061,-8.5055,-8.508,-8.5092,-8.5097,-8.5096,-8.4767,-8.5047,-8.5045,-8.5043,-8.5042,-8.5041,-8.4682,-8.4747,-8.4778,-8.4845,-8.4872,-8.4909,-8.4969,-8.4972,-8.5031,-8.5092,-8.5071,-8.5152,-8.5179,-8.5244,-8.5263,-8.5324,-8.5283,-8.5318,-8.5327,-8.5337,-8.5349,-8.5088,-8.5333,-8.5333,-8.5332,-8.5331,-8.5331,0,-8.4928,-8.4946,-8.5008,-8.5065,-8.5118,-8.5073,-8.5113,-8.516,-8.5233,-8.5263,-8.5314,-8.5396,-8.5458,-8.5462,-8.5521,-8.5569,-8.555,-8.5586,-8.5581,-8.5585,-8.5383,-8.5356,-8.5601,-8.5601,-8.5601,-8.56,-8.56,-8.56,-8.5062,-8.5171,-8.5167,-8.5288,-8.5304,-8.5385,-8.5412,-8.5446,-8.5471,-8.5565,-8.5618,-8.5621,-8.5641,-8.5701,-8.5756,-8.5756,-8.5779,-8.5824,-8.5815,-8.5626,-8.5599,-8.5573,-8.5548,-8.5829,-8.5829,-8.6012,-8.6014,-8.6015]}]]